Location: Arrodets-la-Barthe
(43.0306°N, 0.2829°E)
Time: 19:56:11
(UTC+00:00)

NOSS 3-1 (C) - Pass Details

Date: 24 October 2021
Orbit: 717 x 1491 km, 63.4° (Epoch: 25 November)

Event Time Altitude Azimuth Distance (km) Brightness Sun altitude
Rises 18:10:13 0° 219° (SW) 3,161 6.9 -13.1°
Reaches altitude 10° 18:12:28 10° 221° (SW) 2,286 6.1 -13.5°
Maximum altitude 18:17:39 77° 308° (NW) 860 3.3 -14.5°
Drops below altitude 10° 18:23:47 10° 34° (NE) 2,684 5.5 -15.6°
Enters shadow 18:25:06 - 35° (NE) 3,187 5.8 -15.8°
